Weather Roundup
Issued by NWS

Home | Current Version | Previous Version | Graphics & Text | Print | Product List | Glossary Off
Versions: 1 2 3 4 5 6 7 8 9 10 11 12 13 14 15 16 17 18 19 20 21 22 23 24 25 26 27 28 29 30 31 32 33 34 35 36 37 38 39 40 41 42 43 44 45 46 47 48 49 50

495
NZUS93 KARX 031810
HRRWXR

CURRENT HOURLY OBSERVATIONS ACROSS
MUCH OF THE UPPER MISSISSIPPI VALLEY
NATIONAL WEATHER SERVICE LA CROSSE WI
1200 PM CST SAT DEC 03 2016


...SOUTHEAST MINNESOTA...


CITY           SKY/WX    TMP DP  RH WIND       PRES   REMARKS
ROCHESTER      CLOUDY    29  23  78 NW6       30.26F WCI  23
ROCHESTER/MAYO CLOUDY    30  22  72 W5        30.27F WCI  25
WINONA           N/A     34  25  69 W5        30.30S WCI  30
AUSTIN         PTSUNNY   32  21  64 N7        30.25F WCI  26
ALBERT LEA     SUNNY     34  27  75 N3        30.25F
DODGE CENTER   CLOUDY    30  21  69 CALM      30.25F
PRESTON        CLOUDY    30  20  68 NW5       30.27R WCI  25
OWATONNA       CLOUDY    30  19  64 CALM      30.25F
FARIBAULT      PTSUNNY   30  21  69 CALM      30.26F
$$

...ELSEWHERE IN MINNESOTA...


CITY           SKY/WX    TMP DP  RH WIND       PRES   REMARKS
MINNEAPOLIS    CLOUDY    30  19  63 S3        30.27F
INTNL FALLS    CLOUDY    26  18  71 VRB5      30.19F WCI  20
DULUTH         FLURRIES  27  24  89 SW3       30.21F
RED WING       CLOUDY    30  19  64 SW3       30.28S
REDWOOD FALLS  SUNNY     32  22  66 SE13      30.21F WCI  22
MANKATO        CLOUDY    31  22  69 CALM      30.25F
WORTHINGTON    PTSUNNY   33  29  85 S17       30.20F WCI  22
FAIRMONT       MOSUNNY   34  23  64 SE9       30.24F WCI  27
$$

...SOUTHWEST WISCONSIN...


CITY           SKY/WX    TMP DP  RH WIND       PRES   REMARKS
LA CROSSE      CLOUDY    34  23  64 CALM      30.30S
PRAIRIE DU CHI CLOUDY    33  23  68 S5        30.32S WCI  28
BOSCOBEL       CLOUDY    34  23  64 S6        30.33R WCI  29
LONE ROCK      CLOUDY    33  22  63 SW3       30.32R
PLATTEVILLE    CLOUDY    32  26  78 SW8       30.33R WCI  25
FORT MC COY    CLOUDY    32  22  66 CALM      30.29R
CAMP DOUGLAS   PTSUNNY   32  19  59 NW5       30.27F WCI  27
MAUSTON-NEW LI CLOUDY    32  21  63 NW3       30.27S
VIROQUA        CLOUDY    30  24  78 CALM      30.27S
WIS DELLS      CLOUDY    31  21  66 N3        30.29R
$$

...ELSEWHERE IN WISCONSIN...


CITY           SKY/WX    TMP DP  RH WIND       PRES   REMARKS
MILWAUKEE      CLOUDY    33  22  63 SW3       30.32R
MADISON        CLOUDY    31  22  69 S5        30.30R WCI  26
GREEN BAY      CLOUDY    33  25  72 W7        30.27F WCI  27
EAU CLAIRE     CLOUDY    30  24  78 VRB3      30.27F
BLACK RVR FLS  CLOUDY    33  19  56 NW6       30.27F WCI  27
MEDFORD        CLOUDY    28  20  72 W7        30.23S WCI  21
WAUSAU         CLOUDY    29  21  72 NW6       30.23F WCI  23
WIS RAPIDS     CLOUDY    30  23  75 W6        30.28S WCI  24
MARSHFIELD     CLOUDY    29  23  78 W6        30.24F WCI  23
RICE LAKE      CLOUDY    30  23  75 CALM      30.26F
$$

...NORTHEAST IOWA...


CITY           SKY/WX    TMP DP  RH WIND       PRES   REMARKS
WATERLOO       CLOUDY    37  25  61 CALM      30.31S
DUBUQUE        CLOUDY    33  25  72 S9        30.32S WCI  25
DECORAH        CLOUDY    32  23  69 VRB6      30.28R WCI  26
MASON CITY     SUNNY     34  24  67 SE5       30.28S WCI  30
CHARLES CITY   CLOUDY    34  23  64 CALM      30.29S
OELWEIN        CLOUDY    36  27  69 CALM      30.30F
$$

...ELSEWHERE IN IOWA...


CITY           SKY/WX    TMP DP  RH WIND       PRES   REMARKS
DES MOINES     CLOUDY    42  30  62 S9        30.30F
IOWA CITY      CLOUDY    39  27  62 S6        30.35F WCI  35
FORT DODGE     PTSUNNY   39  27  60 S9        30.28S WCI  33
MARSHALLTOWN   NOT AVBL
CEDAR RAPIDS   CLOUDY    38  29  70 SW7       30.31F WCI  33
$$

...NORTHERN ILLINOIS...


CITY           SKY/WX    TMP DP  RH WIND       PRES   REMARKS
CHICAGO-OHARE  CLOUDY    33  23  66 SW3       30.33S
CHICAGO-MIDWAY NOT AVBL
MOLINE         CLOUDY    38  25  59 S7        30.36S WCI  33
ROCKFORD       CLOUDY    34  24  67 NW6       30.36S WCI  29
PEORIA         CLOUDY    37  26  64 NW5       30.38F WCI  33
$$

NOTE: "FAIR" INDICATES FEW OR NO CLOUDS BELOW 12,000 FEET WITH NO
SIGNIFICANT WEATHER AND/OR OBSTRUCTIONS TO VISIBILITY. WIND
SPEEDS ARE IN MILES-PER-HOUR.




USA.gov is the U.S. government's official web portal to all federal, state and local government web resources and services.